Simultaneous Nadir Overpasses (SNOs) Predictions

Prediction of SNOs between GOES-15 and METOP-A Satellite Orbit:

Table of predicted SNOs for the next 14.0 days since TLE Epoch: 2/26/2022
Index Date Time (GOES-15) GOES-15 Lat,Lon METOP-A Lat,Lon Distance(km) Time Diff (sec)
1 02/26/2022 16:29:06 0.03,-127.63 -0.58,-124.83 319.00 80
2 02/27/2022 04:42:48 -0.03,-127.57 -0.30,-128.76 136.52 80
3 03/01/2022 16:30:53 0.03,-127.50 -0.52,-125.12 271.85 80
4 03/02/2022 04:44:23 -0.03,-127.44 -0.36,-129.01 178.36 80
5 03/04/2022 16:32:39 0.04,-127.38 -0.39,-125.40 225.18 80
6 03/05/2022 04:45:58 -0.03,-127.31 -0.46,-129.25 219.97 80
7 03/07/2022 16:34:24 0.04,-127.25 -0.28,-125.68 178.34 80
8 03/08/2022 04:47:32 -0.03,-127.18 -0.53,-129.49 262.29 80
9 03/10/2022 16:36:08 0.03,-127.11 -0.24,-125.97 130.69 80
10 03/11/2022 04:49:07 -0.03,-127.04 -0.58,-129.73 305.91 80
